Theta_e
307 306 307 307 307 307 307 307 306 306 307 309 313 315 317 318 315 312 314 311 310 316 320 316 323 323 321 319 320 319 317 317 316 317 317 318 318 320 320 320 320 320 321 326 328
305 305 305 304 305 305 305 306 306 306 303 306 309 312 316 318 316 313 309 307 308 318 323 319 324 323 321 319 320 318 317 318 316 314 317 318 319 319 321 319 320 320 324 326 330
304 304 304 304 304 305 305 305 304 304 304 302 305 309 313 316 315 314 315 307 308 319 322 319 321 321 321 319 318 317 318 318 320 319 320 320 320 320 320 320 319 319 323 334 335
303 303 303 303 303 303 303 303 303 303 304 305 305 307 311 314 315 319 314 309 308 320 322 321 321 321 317 317 318 319 318 319 320 321 320 318 319 318 320 320 320 321 320 327 335
304 303 302 303 303 303 302 301 303 302 304 304 304 306 310 315 314 319 321 320 311 318 321 322 320 319 317 317 317 317 317 319 320 320 319 318 318 317 318 319 320 320 320 321 323
304 303 302 302 302 302 301 302 302 303 304 304 305 304 309 314 314 315 318 319 314 318 321 321 321 319 318 317 317 317 318 317 318 318 318 317 317 318 318 319 319 319 319 320 320
303 302 301 302 301 301 301 302 302 303 304 304 304 304 309 313 313 315 312 319 316 318 320 320 321 319 318 316 318 317 318 316 316 317 317 318 317 316 318 318 318 318 319 319 319
302 302 302 302 300 300 301 302 301 302 303 304 303 305 311 313 314 316 317 318 318 321 318 320 320 320 318 318 317 317 317 319 317 316 318 318 316 315 317 317 318 318 318 318 318
301 302 302 302 301 301 302 300 300 300 301 304 303 306 311 312 313 315 318 319 319 319 318 318 319 320 318 315 317 315 317 318 318 315 316 316 317 316 317 316 316 317 317 317 317
301 302 301 301 301 301 300 300 300 301 300 301 304 308 311 313 313 313 318 319 318 318 318 318 318 316 313 317 317 318 317 316 317 314 314 315 313 312 314 313 314 314 317 317 318
303 302 301 301 301 301 300 300 301 302 302 304 307 310 312 313 312 316 317 319 320 319 319 318 320 320 318 315 313 314 315 316 314 313 313 312 311 310 311 311 311 313 315 316 317
303 305 300 301 302 302 302 300 301 302 301 303 308 310 312 313 313 315 316 318 319 318 317 318 320 318 315 314 317 317 316 316 313 311 312 310 309 310 310 310 312 313 314 315 316
302 303 305 301 302 302 302 300 301 302 302 304 306 310 311 312 314 314 316 318 318 319 318 319 317 319 319 319 320 316 316 314 315 311 308 307 310 308 308 308 309 309 310 310 311
302 302 304 301 303 302 301 302 302 303 303 305 309 312 313 312 313 314 316 316 317 318 317 316 317 318 319 320 316 316 311 312 311 311 313 308 312 309 308 305 305 306 306 307 308
302 303 303 302 302 301 301 302 301 303 309 308 312 312 312 312 313 314 315 315 317 315 316 315 317 318 319 317 314 314 309 309 308 308 308 308 308 307 304 306 306 304 306 309 310
301 302 302 302 301 302 301 302 303 299 308 311 311 313 312 313 313 313 313 315 315 314 312 311 311 313 314 311 312 309 308 305 304 305 304 305 307 306 306 306 304 304 307 309 310
301 301 301 301 301 301 302 303 301 308 308 312 314 312 312 314 314 314 314 313 317 316 315 313 311 309 310 310 308 308 310 306 304 301 306 306 307 305 305 305 306 304 306 309 311
302 303 303 302 302 303 303 303 305 311 313 312 311 311 313 312 314 313 313 313 309 312 313 313 316 311 309 310 311 309 308 305 306 305 307 305 309 308 305 306 307 307 308 310 313
303 304 304 303 303 303 303 307 306 309 312 313 311 313 313 312 314 313 312 311 310 308 309 307 310 309 308 309 309 309 305 305 304 301 301 304 304 302 304 305 305 306 308 310 311
303 303 305 305 305 304 302 311 309 308 309 307 309 310 311 313 312 313 311 311 310 308 307 308 310 309 309 308 307 308 306 307 300 302 306 305 305 305 305 306 305 305 306 312 313
304 304 307 306 306 306 305 309 311 310 310 308 309 309 309 310 310 311 310 308 309 308 307 306 307 310 309 309 309 308 306 304 303 303 304 307 306 302 304 306 306 304 308 310 312
306 300 307 308 304 307 310 309 309 310 311 309 306 307 308 308 308 309 309 308 308 307 309 308 306 303 310 307 306 307 307 304 302 302 301 302 306 305 304 303 305 308 309 312 313
304 305 307 308 304 307 306 308 308 310 310 309 308 307 307 307 309 308 308 307 308 307 308 307 304 302 308 308 307 308 307 305 303 301 299 304 306 304 304 304 307 309 310 312 312
305 300 306 308 306 307 308 308 310 310 310 307 307 307 308 308 307 308 308 308 307 308 309 308 304 304 305 305 305 306 307 305 305 299 305 305 306 307 306 306 308 310 310 312 310
304 302 303 304 304 303 305 308 310 311 310 308 308 308 308 309 310 309 308 308 309 311 309 307 303 303 306 306 306 307 308 307 304 305 305 306 306 307 307 307 309 309 312 309 307
303 303 304 304 303 304 304 309 310 310 310 310 307 309 309 308 308 309 308 308 309 308 307 305 307 307 302 306 306 307 307 307 307 308 307 308 308 308 308 309 312 312 309 306 303
301 302 302 305 301 304 305 307 309 310 310 310 309 310 312 312 311 309 308 308 308 307 307 307 305 302 303 306 307 309 307 307 308 307 308 309 309 307 309 312 312 310 307 304 302
Wind_Speed
25 28 27 25 24 21 21 19 16 18 18 26 23 25 14 19 17 17 26 25 24 8 11 25 21 17 12 9 9 9 3 5 7 7 4 2 2 1 2 8 7 3 7 6 10
25 25 26 24 23 21 21 21 17 18 19 28 27 24 16 7 19 28 26 21 18 17 12 27 24 19 8 8 8 6 4 9 7 6 4 2 2 3 3 7 4 5 4 8 12
25 25 23 22 19 20 20 19 22 22 20 19 27 24 19 12 15 28 23 24 20 23 16 22 22 21 9 8 7 5 5 5 6 6 4 3 2 1 0 4 3 2 7 5 19
26 24 22 20 19 20 20 18 20 19 18 19 18 17 17 12 5 2 5 19 21 27 22 19 20 17 6 6 9 3 5 9 5 9 5 3 1 3 7 9 4 7 12 3 16
25 24 22 19 18 16 17 16 17 15 15 17 17 13 11 9 20 5 3 7 28 29 27 23 20 13 6 8 6 4 3 12 13 10 7 5 6 8 11 14 14 16 13 9 7
23 23 21 19 18 16 15 14 15 13 15 15 14 12 14 8 14 23 4 11 29 33 30 26 16 11 10 7 5 8 9 9 6 9 5 5 7 9 3 7 17 22 21 19 15
22 23 20 17 17 14 15 14 15 15 14 14 12 11 18 15 9 17 15 10 30 34 34 28 15 10 8 4 12 5 2 1 7 5 5 1 7 7 21 24 30 28 26 25 24
25 21 19 18 16 15 16 17 17 14 12 11 8 12 10 12 16 10 11 15 28 27 32 28 13 12 4 6 4 6 3 2 3 7 5 8 5 7 12 16 24 28 30 31 31
24 23 19 19 17 15 17 18 15 15 12 9 9 10 7 5 19 9 7 22 25 22 23 24 16 7 4 6 4 2 4 4 5 5 2 7 3 4 9 9 15 23 29 29 29
28 23 20 17 16 14 17 15 11 6 3 3 8 5 6 8 15 14 11 18 24 23 19 19 9 4 2 4 7 6 3 2 4 2 2 4 7 9 18 15 14 21 26 26 27
28 22 16 12 8 9 9 9 2 3 6 3 2 4 6 11 20 16 12 19 14 24 7 15 4 14 12 6 4 5 4 4 3 2 2 5 4 13 17 15 19 25 29 33 35
30 29 18 13 10 9 10 4 1 1 4 9 4 10 5 16 8 14 13 7 4 12 6 5 7 6 8 8 6 5 4 3 4 1 1 5 10 16 14 9 22 26 31 34 36
32 21 18 9 10 8 8 3 3 3 1 1 7 8 9 15 8 7 10 5 3 4 11 5 4 4 12 9 7 2 4 2 3 4 2 7 6 5 4 4 8 15 19 22 24
29 21 9 6 4 4 4 3 4 1 4 3 4 1 14 9 5 12 8 2 3 6 12 5 2 6 7 5 4 2 2 2 2 2 2 4 5 7 5 8 4 11 19 16 11
29 18 10 7 2 2 4 4 3 2 4 2 3 6 14 5 16 4 4 7 5 6 1 3 8 5 8 5 5 3 4 4 2 3 3 3 3 8 4 5 4 10 17 22 25
25 16 9 8 7 6 6 5 3 4 5 4 3 7 7 4 4 8 3 8 8 10 6 4 7 4 4 4 1 9 5 5 4 2 2 3 3 6 1 2 6 6 12 19 24
22 21 13 13 15 13 7 4 5 5 2 1 6 5 7 4 5 4 2 4 3 4 4 4 2 1 4 7 4 4 5 2 4 3 4 2 1 8 5 4 3 4 7 21 30
17 16 15 14 11 7 8 4 8 3 6 5 6 12 6 6 5 3 3 3 5 4 3 3 2 2 2 3 5 2 5 4 4 1 3 0 5 4 4 1 4 2 10 29 31
9 13 15 13 11 11 6 5 0 2 4 8 8 7 5 6 4 4 4 2 2 2 5 4 3 2 3 2 3 3 2 2 5 2 2 3 7 7 5 5 3 4 17 30 27
13 12 17 17 12 8 2 3 2 3 3 5 4 2 3 2 2 2 3 1 4 2 2 2 4 2 2 4 7 2 6 2 3 2 2 4 5 4 4 4 6 8 19 31 29
9 4 17 16 9 6 3 3 1 3 4 3 2 3 4 4 3 4 4 1 2 3 6 3 3 1 3 2 6 2 1 4 4 3 3 2 5 6 5 1 4 9 25 24 21
6 3 14 11 6 3 2 5 6 4 3 3 4 3 3 2 2 2 7 2 6 8 5 2 4 2 2 1 1 2 5 5 4 4 1 2 6 3 5 6 7 18 23 19 20
6 4 10 9 3 3 5 3 2 3 3 0 2 1 2 4 3 2 3 1 9 4 6 5 1 3 4 3 2 3 4 4 4 3 5 4 5 1 4 9 20 18 21 26 28
5 3 5 8 5 2 5 4 4 4 2 3 3 3 3 2 4 4 2 4 9 8 7 5 3 4 5 5 4 2 4 5 5 3 3 6 7 12 12 13 18 24 26 21 21
6 2 2 3 1 2 2 2 3 4 4 1 2 3 4 3 2 3 2 2 4 2 4 4 3 1 4 4 3 4 4 8 8 6 6 3 6 11 14 14 20 23 18 19 23
4 4 4 4 6 0 3 3 4 4 2 2 5 3 3 4 5 7 5 3 3 2 4 1 3 1 4 3 4 5 9 9 11 11 12 13 19 18 23 17 13 14 15 17 16
6 3 2 3 4 1 2 2 3 4 3 4 4 3 3 1 2 6 4 9 5 7 3 4 5 2 4 3 5 5 8 12 7 6 9 8 13 7 9 7 12 17 14 17 16
Wind_Direction
312 308 303 299 294 291 295 289 291 303 279 262 263 254 316 232 245 234 228 224 218 183 181 190 197 190 183 186 176 167 114 183 192 169 217 156 180 165 264 285 308 256 261 241 224
314 312 303 301 295 296 290 288 285 293 316 263 259 263 263 270 243 246 240 232 216 185 187 185 191 192 181 189 184 165 167 196 190 182 186 128 105 325 344 334 310 273 268 257 210
315 309 306 302 292 288 285 286 289 294 291 308 267 264 252 337 231 261 248 234 212 178 180 192 199 188 188 181 188 179 201 189 222 183 178 140 291 165 50 293 259 339 354 228 196
320 315 311 309 300 295 295 296 286 281 284 294 294 272 267 263 233 162 224 204 194 181 182 173 180 178 163 182 185 151 193 187 238 216 241 178 243 288 230 243 265 299 317 329 212
324 315 314 311 309 307 300 294 289 289 284 288 289 280 293 227 224 125 135 202 181 186 189 183 165 167 168 168 140 173 186 216 237 258 264 234 226 235 252 261 263 271 270 271 261
319 321 323 316 315 310 304 301 297 290 286 287 290 264 272 253 255 242 265 195 191 184 189 189 178 167 168 184 166 187 206 240 263 254 255 219 240 231 247 249 252 260 262 262 259
318 317 317 318 318 313 307 302 300 297 288 285 286 246 273 241 221 242 233 216 185 185 188 184 173 169 153 125 191 140 106 262 249 223 235 82 269 226 252 259 264 263 265 265 263
319 314 310 312 313 305 305 306 299 293 290 286 281 231 258 231 228 216 199 196 184 187 191 179 172 179 164 132 80 121 79 196 286 171 227 156 248 272 271 261 264 267 266 264 264
321 313 306 305 305 306 308 312 310 295 273 266 259 203 238 226 206 215 200 188 182 176 181 180 179 187 144 121 104 63 175 194 307 200 194 189 289 257 302 309 273 271 275 273 271
318 315 313 300 293 295 310 317 317 308 220 228 208 250 215 192 194 220 177 173 166 159 150 169 179 130 106 181 186 162 181 214 208 211 140 259 274 278 287 289 276 285 280 280 279
315 307 302 311 309 299 324 340 308 57 168 175 226 231 150 146 185 185 154 157 167 167 149 164 162 195 186 159 149 130 130 191 239 295 294 254 263 280 279 276 274 274 275 277 275
323 303 269 286 297 297 311 328 312 287 309 235 334 228 214 144 145 170 173 129 134 130 95 126 197 175 147 138 122 121 125 233 282 294 309 317 292 269 267 245 255 262 268 273 282
338 332 285 249 295 292 306 292 234 266 208 175 324 274 153 139 110 159 175 94 87 106 138 121 165 121 157 163 167 122 155 188 239 340 46 327 290 320 301 282 317 303 289 283 289
351 346 302 199 276 306 185 192 202 204 75 271 190 85 138 160 70 140 146 92 101 95 107 86 230 149 125 157 128 113 165 113 63 48 266 13 288 302 309 324 322 21 26 33 19
15 22 93 149 123 119 138 113 193 276 94 343 359 121 123 96 134 112 100 44 100 98 186 89 117 127 153 145 155 186 104 101 81 80 17 348 89 270 5 360 359 350 32 57 48
22 26 50 104 94 123 123 127 190 45 46 8 32 103 81 45 50 111 121 100 66 59 61 112 122 146 150 120 249 145 88 57 55 74 16 287 143 283 173 105 309 348 30 27 22
35 45 67 77 96 101 104 332 24 57 278 54 107 96 97 82 82 78 54 54 93 115 57 38 32 98 116 92 45 86 75 331 359 15 219 217 154 252 291 274 261 317 7 10 1
30 48 58 63 75 39 346 36 56 15 73 123 95 70 64 31 50 65 85 109 45 89 113 139 139 61 7 107 161 105 143 163 208 185 275 318 236 250 222 221 329 59 6 355 351
8 3 18 25 7 348 346 55 360 332 90 130 75 56 42 28 76 76 2 95 113 75 115 113 49 31 45 97 94 189 112 178 111 72 46 253 285 313 25 100 52 347 345 346 348
329 331 2 354 331 337 82 79 30 211 48 61 91 188 120 113 102 115 176 189 112 83 97 162 92 11 82 95 41 125 140 83 4 114 284 283 285 244 290 327 349 333 332 341 336
351 349 3 356 13 53 68 17 305 11 43 96 147 106 122 135 125 150 178 282 100 115 65 116 97 10 101 188 170 135 111 59 107 98 163 283 266 210 223 270 284 317 327 327 324
16 29 2 13 45 21 25 334 342 326 354 58 95 97 109 94 80 108 193 226 165 142 122 73 112 138 191 357 230 159 169 138 119 228 87 126 274 276 259 265 301 310 316 323 324
357 337 14 32 68 356 324 295 267 320 353 16 100 102 132 145 127 164 200 99 152 138 151 173 22 56 355 359 10 203 187 138 121 90 201 147 260 158 311 287 309 310 323 333 338
358 15 20 63 78 22 9 338 335 321 315 76 103 88 110 97 36 176 115 2 196 177 133 119 123 156 190 203 145 185 181 173 136 130 198 235 290 297 299 304 305 329 325 326 335
24 66 359 323 346 15 254 289 327 3 349 62 94 166 130 108 92 126 130 99 76 201 100 127 128 102 261 236 184 207 187 187 200 187 183 238 227 274 287 295 305 307 314 337 339
51 17 348 283 289 304 0 14 353 328 8 358 123 106 38 159 184 193 142 158 171 65 124 62 124 56 302 328 220 240 222 207 214 230 250 264 285 276 277 295 299 316 328 337 336
48 28 10 309 323 327 205 280 304 338 41 50 109 89 82 327 257 228 143 161 169 146 136 124 142 117 275 313 305 276 221 197 196 207 207 228 243 292 298 315 321 321 338 338 333